RH
72 75 78 80 83 85 85 86 86 84 85 85 83 83 78 74 75 77 78 78 79 77 77 80 81 79 80 82 82 84 86 83 78 77 79 79 81 84 85 84 80 77 75 73 72 72 72 71 69 67 64 62 61 60 56 51 48 43 38 36 36 38 38 37 36 35 32 30 30 31 33 33 35 35 36 38 39 40 39 39 40 41 42 42 42 42 43 44 45 46 47 46 46 48 50 53 56
71 75 78 80 82 84 85 85 85 84 83 83 83 82 78 75 75 76 77 78 76 75 77 80 82 80 80 81 80 83 87 85 80 76 77 77 79 82 82 82 77 73 72 71 72 72 73 71 68 65 63 62 60 58 55 49 44 40 37 35 37 39 38 36 35 33 31 30 32 33 34 36 38 38 38 39 41 40 40 40 42 43 43 43 42 43 44 44 45 45 47 46 46 49 51 55 58
72 75 77 80 81 82 83 83 84 84 81 81 81 79 76 76 76 75 76 75 74 74 76 78 80 80 79 80 81 84 87 85 79 74 76 75 75 78 78 79 77 73 72 71 71 73 73 72 68 64 61 60 58 56 53 49 43 40 39 38 39 39 36 34 34 33 31 32 34 35 37 39 40 40 40 41 41 41 41 43 44 44 44 43 43 45 46 46 46 46 47 48 48 51 54 58 59
72 75 77 79 79 80 82 81 82 81 77 78 77 73 72 74 74 75 74 73 74 73 75 76 77 79 78 80 81 83 85 84 79 73 74 74 73 76 77 78 79 77 74 72 71 71 72 70 66 62 59 57 55 53 52 51 47 43 42 40 39 36 34 34 34 33 33 35 36 37 38 40 40 40 41 42 42 43 43 44 45 45 43 44 45 47 47 47 47 48 49 50 50 54 58 59 58
71 75 77 79 79 78 81 80 81 79 76 75 71 69 69 71 73 75 73 72 73 72 74 74 76 78 78 78 79 81 84 84 80 74 73 73 73 76 76 75 77 77 75 73 71 70 69 66 63 60 57 54 52 51 51 52 49 46 42 39 36 33 33 34 35 35 36 38 38 38 39 40 40 40 42 43 45 45 45 46 46 46 45 45 47 49 49 49 50 50 51 51 51 55 58 56 56
70 74 76 78 78 77 78 79 78 76 73 70 66 65 67 69 73 73 71 71 72 72 73 73 73 74 77 79 78 79 81 81 76 73 73 72 74 74 72 71 72 74 73 71 70 67 64 62 61 59 55 53 51 50 50 50 49 45 41 37 34 33 34 36 37 38 39 39 40 41 41 41 41 42 43 44 46 46 46 47 48 48 48 49 49 50 51 51 52 53 54 54 53 53 54 54 56
69 74 77 77 77 76 77 76 75 73 67 64 62 62 63 66 69 70 69 69 71 72 72 72 71 70 75 78 77 77 76 74 71 70 71 70 71 69 65 65 67 69 69 68 66 62 61 60 58 57 54 52 50 48 48 47 46 43 39 36 35 35 37 39 39 41 41 42 43 44 43 44 43 44 44 44 44 46 47 49 51 52 52 53 53 53 52 51 51 53 54 56 57 55 54 55 56
70 72 75 76 76 75 74 73 71 70 64 60 61 61 60 61 63 65 66 68 68 68 67 67 66 68 73 75 76 75 71 69 68 67 68 66 65 64 61 61 62 63 64 63 60 58 60 59 56 55 52 51 50 47 46 44 42 40 38 36 37 39 41 42 41 42 43 45 45 45 46 46 46 47 46 46 47 49 52 55 57 56 56 57 57 56 54 52 51 54 57 59 59 57 56 56 56
72 71 72 74 73 71 70 68 64 63 62 61 61 59 57 58 60 60 64 67 65 62 63 63 63 67 71 76 75 69 68 68 65 63 63 61 58 58 58 57 57 57 58 58 56 56 57 56 54 53 50 50 49 46 44 42 40 38 37 38 39 42 43 43 43 43 45 47 47 47 47 47 49 49 48 48 50 52 54 56 58 58 59 60 60 58 55 52 54 57 59 60 59 56 54 54 54
73 72 72 72 69 68 66 62 60 58 57 59 60 57 55 57 59 59 63 66 65 62 62 63 65 67 69 73 71 64 65 66 62 59 58 55 52 52 52 53 53 53 54 54 54 54 53 52 51 50 48 47 46 43 41 39 38 38 39 40 41 43 44 44 43 43 46 47 47 48 47 47 49 48 48 48 49 50 51 54 56 58 59 60 60 57 55 54 56 58 58 57 56 53 50 51 53
73 73 73 72 69 67 64 59 57 55 53 56 59 57 55 57 60 61 62 63 65 64 62 63 64 65 67 67 66 62 62 61 58 56 53 52 50 49 49 50 51 51 51 50 50 50 50 49 48 48 46 45 44 41 38 37 38 39 40 41 42 44 45 43 43 45 47 46 47 48 48 48 49 47 46 46 47 49 51 54 54 57 57 56 57 56 55 55 56 56 56 55 54 53 50 51 53
74 73 71 71 70 65 60 56 53 51 51 54 56 55 57 59 61 60 61 62 63 64 62 62 61 62 66 66 64 62 59 58 56 55 53 52 51 50 50 50 50 49 48 47 47 47 47 46 46 47 45 44 43 41 39 38 38 39 40 41 41 43 44 43 45 48 47 47 48 49 49 49 47 44 43 44 46 49 51 52 53 55 55 53 53 53 54 54 55 55 55 55 54 53 52 52 53
72 71 69 68 67 62 56 55 52 50 48 48 50 55 58 58 60 60 62 63 63 64 61 60 59 58 63 63 62 62 58 57 55 55 54 54 52 50 50 49 49 48 47 47 46 46 46 45 46 46 45 44 44 43 42 39 38 38 39 40 40 42 44 46 47 48 47 49 50 49 50 47 43 40 40 43 45 46 47 49 49 51 51 49 48 48 50 52 53 54 55 55 53 53 52 51 52
70 68 66 65 65 59 56 57 54 50 47 45 47 53 55 54 56 59 61 61 62 64 63 62 59 58 62 60 60 59 55 54 53 55 55 54 53 50 48 48 48 47 47 46 46 45 45 45 46 45 45 45 45 45 45 42 40 38 38 38 40 43 45 47 48 47 48 49 48 47 47 45 40 38 38 41 42 43 44 44 44 45 45 44 43 44 46 48 49 49 50 49 48 49 49 49 53
69 67 64 64 64 60 59 58 55 52 50 48 47 49 51 50 51 56 60 59 61 64 64 63 59 58 61 59 58 57 51 50 51 52 53 53 52 50 48 46 46 46 45 45 45 43 43 44 44 45 45 45 45 46 46 45 43 40 39 39 41 45 47 48 48 46 45 45 44 45 45 42 38 35 36 37 38 40 41 41 40 40 41 41 41 41 42 43 43 43 43 42 42 44 46 47 51
69 69 65 65 65 61 59 58 56 52 49 49 48 46 48 48 48 54 58 58 61 63 61 61 59 56 58 57 55 54 50 48 50 51 50 50 50 49 47 45 45 45 44 44 44 41 41 42 43 43 44 43 44 45 45 44 44 42 41 42 44 46 48 47 46 43 41 42 43 43 43 40 37 36 36 35 36 38 38 39 39 39 40 39 38 37 37 38 39 40 40 41 42 43 45 47 49
69 71 69 66 63 60 60 59 56 52 48 50 50 47 46 46 46 49 52 53 57 60 57 57 59 58 59 57 52 53 53 50 49 51 50 48 48 48 47 44 43 43 43 44 42 40 40 41 41 42 42 42 42 42 42 42 43 44 44 45 46 47 46 45 44 42 41 43 44 43 41 39 38 39 39 38 38 38 37 38 38 39 40 38 35 34 35 37 40 40 41 42 43 46 47 47 46
68 70 69 66 63 61 60 58 54 52 50 51 54 51 47 46 44 44 46 47 48 53 53 54 58 59 61 58 52 52 54 51 49 51 51 49 47 46 46 44 41 40 41 41 41 40 41 41 41 41 41 40 40 40 40 40 43 45 46 46 46 46 44 44 43 43 44 46 46 45 42 39 39 40 41 41 40 39 39 39 38 40 40 38 36 35 37 40 42 42 43 43 44 47 46 44 42
66 68 68 64 63 59 57 55 53 54 52 51 56 53 47 45 43 41 43 43 42 45 48 51 55 59 61 59 54 52 53 51 48 49 49 48 47 47 46 42 37 37 38 39 40 41 41 40 40 39 40 39 39 39 39 40 43 44 45 44 45 45 44 43 44 44 45 47 47 45 42 39 40 41 43 44 42 41 41 41 42 42 42 40 38 37 39 42 43 43 43 43 43 43 41 40 40
64 67 68 62 60 56 54 53 52 55 53 53 56 51 47 47 44 42 41 42 41 40 42 44 50 55 56 56 54 52 51 51 49 48 47 47 48 48 46 41 36 35 36 38 40 41 40 38 37 37 37 38 37 37 37 39 40 41 41 41 42 43 42 42 43 44 44 46 45 43 41 41 43 43 45 46 44 43 43 44 45 44 42 42 41 40 42 42 42 42 41 41 39 38 39 39 39
62 63 64 60 59 56 53 53 53 53 52 54 55 52 49 48 46 45 42 41 40 40 40 38 41 46 49 51 51 53 53 53 51 48 46 46 47 48 45 39 35 34 35 37 38 39 37 35 35 35 36 36 36 35 35 36 37 38 38 39 40 41 40 41 41 42 43 44 43 41 42 44 45 45 46 48 46 45 44 45 45 45 45 45 45 44 43 42 42 41 40 40 37 37 40 39 39
58 57 57 58 57 56 54 54 53 50 50 53 55 54 52 48 44 43 41 39 38 39 41 40 40 41 42 45 50 56 56 53 49 45 45 46 46 46 42 37 35 34 35 35 36 37 35 34 34 34 35 35 35 34 34 35 36 37 38 38 39 40 40 40 40 40 42 42 42 42 44 46 46 46 47 48 48 46 46 46 45 46 47 47 47 45 44 43 42 41 41 42 39 39 41 39 39
57 54 54 55 55 55 55 55 53 50 51 53 54 54 54 49 43 40 39 36 32 34 39 41 42 40 40 45 50 54 54 50 47 44 44 44 45 44 39 36 32 31 33 33 35 35 33 33 33 34 34 34 34 34 34 35 36 37 37 37 37 38 40 40 39 39 40 40 42 43 45 46 47 47 47 48 48 47 48 49 48 48 48 47 45 46 46 45 44 44 44 44 42 42 41 40 40
56 54 52 51 51 52 54 55 53 52 53 53 53 54 54 50 43 41 40 35 32 33 38 41 44 44 43 48 51 50 50 50 47 44 42 43 43 41 38 35 31 30 31 32 34 33 32 33 33 34 34 34 34 35 34 34 35 36 37 37 37 37 38 38 38 39 41 41 42 44 45 47 48 49 48 49 49 48 49 51 50 49 49 47 46 46 47 47 46 46 45 45 45 44 42 41 41
53 52 50 49 49 48 50 53 53 53 53 53 53 53 54 50 42 42 42 37 35 34 36 39 44 48 47 49 53 50 49 49 48 45 43 44 44 43 39 34 32 30 30 31 32 30 32 34 34 34 34 34 34 34 35 34 35 36 36 37 37 38 37 38 39 40 42 43 44 45 47 49 49 49 49 50 51 50 51 52 51 51 50 48 48 47 47 47 46 45 45 46 47 46 44 42 41
53 50 50 48 47 44 45 49 52 54 53 53 53 52 54 51 44 42 40 39 38 35 36 39 42 48 48 49 52 51 48 46 47 46 43 43 44 43 40 35 32 31 30 31 30 30 32 34 34 33 33 33 33 35 35 35 35 35 35 36 37 38 37 38 39 40 41 42 43 44 46 49 50 51 51 51 51 50 51 51 51 51 50 48 49 48 47 46 45 44 44 47 48 47 46 45 43
52 50 50 47 45 42 42 44 49 54 54 53 53 52 53 50 46 44 41 40 40 37 37 38 39 44 46 47 49 51 49 45 45 45 42 42 42 40 37 35 34 32 31 31 30 31 32 33 32 32 32 31 32 33 34 34 34 35 35 36 39 39 39 39 40 40 41 40 40 40 42 46 49 52 52 51 51 50 50 49 49 49 48 47 48 48 46 45 44 43 44 45 46 46 46 45 43
51 48 48 47 45 42 41 42 45 51 53 53 53 51 49 47 46 44 42 42 43 43 41 38 38 42 45 45 46 48 49 46 44 44 41 40 38 35 34 33 34 33 30 30 31 32 32 31 31 30 30 30 31 31 32 33 33 34 35 36 39 39 40 41 41 41 41 40 38 37 39 43 46 48 49 49 48 49 48 48 48 48 47 48 49 49 47 46 45 43 42 43 43 43 44 43 41
49 45 45 44 43 40 39 40 42 47 52 54 51 49 48 46 45 43 43 43 46 49 48 44 40 42 47 46 44 45 48 47 44 43 40 39 35 32 32 31 32 31 30 30 33 34 32 32 31 28 29 30 31 31 31 32 32 33 35 36 37 38 39 40 40 41 40 40 40 38 38 41 43 44 44 43 44 45 47 46 46 47 47 49 50 49 49 48 47 45 43 41 41 41 41 40 37
43 41 40 40 40 37 37 38 39 43 49 51 50 50 49 47 45 44 44 44 47 51 53 53 46 42 47 47 45 44 46 45 43 41 40 39 35 31 31 30 29 30 29 30 32 33 33 33 31 28 28 29 30 31 32 33 33 33 34 36 37 38 38 38 39 39 39 41 42 41 40 40 41 41 40 40 41 42 44 43 43 44 45 46 47 47 46 46 47 47 43 39 39 39 40 39 34
39 37 36 37 36 34 35 37 38 42 47 49 48 51 48 46 48 46 45 46 48 50 54 57 50 43 46 47 46 44 43 42 41 40 39 38 35 32 30 28 28 28 28 29 30 32 33 33 31 29 28 29 29 31 32 33 34 33 34 35 36 37 37 37 37 37 39 42 44 44 42 41 41 41 41 41 41 42 41 40 40 42 44 45 45 45 46 46 48 47 42 39 38 37 37 35 29
35 33 33 34 32 30 33 35 37 41 47 48 47 49 47 47 50 48 46 46 48 52 54 56 48 42 45 47 47 43 39 39 39 39 38 36 34 32 30 28 27 27 27 28 29 31 32 32 31 29 29 28 27 30 32 33 34 33 33 34 35 36 36 35 35 36 39 43 45 46 45 44 44 44 44 44 44 44 43 41 40 42 43 43 43 43 45 47 48 47 42 38 36 33 32 31 27
30 30 30 31 29 29 32 33 36 39 44 47 46 47 46 48 50 49 49 47 47 50 54 53 43 39 44 47 48 42 35 35 35 37 37 35 33 31 30 28 28 27 26 27 29 30 31 32 30 28 28 28 27 29 31 32 32 32 32 32 32 33 33 33 33 35 38 42 44 45 46 46 47 47 47 47 47 47 46 44 43 44 44 43 41 40 42 45 46 43 36 32 31 30 29 29 27
28 27 27 29 29 30 32 32 34 36 40 44 46 46 45 47 49 50 51 48 45 47 51 50 40 39 43 45 49 43 32 31 32 34 35 34 32 30 30 30 29 29 28 28 29 30 31 31 30 28 27 28 28 28 30 30 30 29 30 30 30 30 31 31 32 33 35 38 41 43 45 46 47 48 49 49 49 49 48 47 47 47 46 44 41 40 42 43 42 37 32 30 30 29 30 30 29
28 27 27 28 29 30 33 33 33 33 36 41 44 45 44 47 51 51 51 50 46 43 48 49 39 37 41 44 48 43 32 29 29 30 31 31 30 29 30 31 31 31 30 29 29 30 31 30 30 28 25 25 26 27 28 28 28 27 27 27 28 29 29 29 30 31 32 34 37 39 43 46 47 49 50 51 50 50 48 46 48 48 47 46 43 41 41 40 37 34 33 33 32 32 32 32 31
27 28 28 29 29 29 32 32 31 32 34 37 42 44 44 47 50 51 50 50 49 45 45 46 39 36 38 42 46 42 34 30 27 27 29 29 29 28 29 30 30 31 31 30 29 29 29 29 28 25 23 23 24 25 25 25 26 25 25 25 26 27 27 27 29 30 30 31 33 37 41 45 47 48 49 50 50 50 48 46 46 47 48 46 42 39 37 36 34 33 34 34 34 35 33 28 27
26 26 27 28 28 28 31 31 30 32 33 35 39 42 44 46 49 50 50 50 51 49 46 45 42 38 38 41 45 42 35 30 27 25 26 27 28 28 29 29 30 31 31 30 29 28 27 26 25 23 22 22 22 23 22 23 24 23 24 24 25 26 26 26 28 29 29 30 33 37 40 43 45 46 47 48 49 49 47 47 48 48 47 44 39 36 35 34 34 35 35 36 37 36 31 27 27
25 25 25 27 27 26 30 31 31 32 33 35 39 43 45 46 48 49 50 50 49 49 48 47 45 42 40 40 44 43 36 31 28 26 25 25 26 28 28 28 29 29 29 28 26 26 26 25 23 22 22 21 21 21 21 21 22 22 23 24 25 25 25 25 26 28 29 30 33 37 39 41 43 45 46 47 47 49 49 50 52 50 46 41 36 34 34 34 37 39 40 41 41 37 35 36 36
24 24 25 25 25 27 30 30 31 32 32 35 39 43 46 47 49 50 49 49 48 48 48 48 46 45 44 41 42 44 38 33 30 27 25 24 24 25 26 26 26 26 26 26 26 26 26 25 23 23 23 22 20 20 21 21 22 23 24 24 24 24 24 24 25 27 29 31 33 35 37 39 42 44 46 47 48 51 51 52 54 50 44 38 33 33 35 38 41 43 44 47 45 39 41 44 44
21 22 23 23 23 27 29 29 31 32 31 34 37 42 47 49 51 50 49 49 49 48 48 48 46 46 48 44 41 42 40 35 32 28 25 24 23 23 24 24 23 24 25 25 26 26 26 25 23 23 24 22 20 20 21 22 24 25 26 26 25 24 24 23 24 26 29 31 32 33 34 37 41 42 44 46 49 53 52 51 52 47 41 35 32 36 40 42 46 47 48 50 47 45 48 50 51
18 19 21 21 23 27 29 30 32 31 30 32 36 43 48 49 50 50 50 51 50 48 49 48 46 47 49 46 42 41 40 36 33 29 26 24 23 22 22 22 22 22 23 23 23 23 24 24 23 24 24 23 22 20 21 23 25 26 27 27 26 24 24 23 24 26 29 31 31 31 32 35 39 40 43 46 50 54 52 49 48 42 35 34 37 42 44 47 50 51 51 49 48 51 54 55 56
16 17 17 20 25 27 28 31 32 32 33 34 37 44 48 46 46 48 50 52 49 48 48 47 46 46 47 48 46 43 40 37 33 29 26 24 23 21 20 20 20 20 20 20 20 21 21 22 23 24 25 24 23 22 22 22 24 25 25 24 24 24 24 23 22 23 26 30 31 30 31 33 36 38 41 45 48 52 51 48 45 38 34 37 42 45 47 50 52 52 51 48 50 55 56 57 57
15 14 14 20 27 28 28 31 32 33 35 35 36 43 48 46 43 45 49 49 47 47 47 45 45 46 45 46 48 46 42 39 35 31 28 27 25 23 20 19 19 18 18 18 19 19 20 21 22 23 24 25 25 24 23 22 23 24 23 22 21 22 21 20 19 20 22 26 30 31 31 32 34 36 40 43 46 50 49 46 42 37 37 41 45 47 50 52 53 52 48 47 52 56 55 55 54
13 10 13 20 28 30 29 30 32 33 35 34 35 40 45 45 42 42 45 47 47 46 45 44 44 45 44 44 46 47 43 40 37 33 30 28 26 25 23 21 19 17 17 18 18 19 19 20 21 22 23 24 25 25 24 23 23 24 23 22 22 21 19 18 19 20 21 24 28 30 30 31 33 36 39 41 44 47 47 45 40 38 41 45 46 49 52 54 53 49 46 49 54 54 52 50 47
11 9 11 18 26 30 31 32 32 33 34 33 34 36 39 42 42 42 44 46 47 45 42 43 43 43 43 43 44 45 44 41 37 34 31 28 26 25 25 24 22 20 18 18 17 17 18 19 19 21 21 22 23 24 24 23 23 24 24 24 23 21 20 19 20 20 21 22 25 27 29 31 33 36 39 40 42 45 44 42 40 39 43 46 46 50 53 53 51 45 43 47 51 50 46 43 41
9 9 10 15 24 29 31 34 33 34 37 33 32 34 34 35 37 39 43 43 41 40 40 40 41 40 41 42 42 44 45 42 38 35 33 31 29 26 25 25 24 23 21 19 18 17 17 18 19 20 20 21 22 22 23 22 22 23 24 25 24 23 22 22 21 21 21 21 22 25 29 31 34 37 39 40 41 44 44 41 39 41 45 47 46 50 51 48 46 42 40 43 48 47 43 40 41
7 8 9 12 21 28 31 33 33 36 35 27 26 33 34 30 28 31 36 37 36 37 38 39 39 39 39 41 41 42 44 44 41 37 35 33 32 29 27 26 26 25 24 22 21 20 19 20 20 22 22 23 24 25 25 25 24 24 23 23 24 24 24 24 23 21 21 21 20 23 27 31 34 37 39 40 40 43 44 41 39 41 46 47 47 48 46 43 41 40 37 39 45 46 43 42 44
8 8 9 10 15 23 28 31 33 33 27 21 24 32 35 29 24 25 27 30 34 36 36 36 37 37 37 39 41 41 41 43 43 40 37 34 33 32 31 30 30 29 29 28 26 23 23 24 24 25 26 27 28 28 29 29 28 27 26 25 23 23 24 24 24 22 21 21 20 22 26 30 34 37 40 40 39 41 42 39 39 42 47 48 47 46 44 41 40 38 35 36 40 43 44 46 46
10 9 11 12 13 16 22 26 28 25 21 21 24 30 33 26 20 23 24 24 28 32 33 33 33 33 34 37 39 39 40 41 42 42 39 36 34 33 32 32 32 33 32 32 31 29 26 25 26 27 26 26 27 28 28 29 30 30 29 28 26 25 24 23 23 22 22 22 21 21 25 29 33 36 39 38 38 40 40 39 40 43 47 48 46 47 45 43 40 37 36 37 39 41 43 45 45
11 11 12 13 13 15 18 19 21 19 18 20 23 29 32 24 18 20 22 23 24 26 27 28 29 30 31 34 36 37 39 39 40 41 41 39 35 33 32 31 31 32 32 33 35 34 31 29 29 30 29 29 28 28 28 28 29 30 30 30 29 28 26 24 23 23 23 22 22 22 24 29 32 34 36 37 37 37 37 39 42 44 47 47 47 47 46 44 40 35 35 37 38 39 39 40 41
10 10 11 12 13 15 16 16 17 17 17 18 22 29 28 20 19 19 19 23 23 22 22 22 25 26 28 32 35 36 38 38 38 39 41 41 37 34 32 30 30 31 31 33 34 36 36 34 33 32 32 33 32 32 30 29 29 29 30 31 31 31 29 27 25 24 23 22 21 22 25 30 32 33 35 35 34 33 35 39 43 45 47 48 48 48 46 43 37 33 33 35 37 38 37 37 37
11 11 12 12 12 12 14 15 17 16 17 17 20 26 24 20 19 19 19 22 22 21 21 21 22 24 26 32 33 33 34 36 37 38 39 41 40 38 34 31 30 31 32 33 33 34 37 38 37 35 34 34 34 34 33 32 31 29 30 31 32 32 32 30 28 25 24 23 22 22 25 31 34 34 35 33 31 30 33 39 43 44 47 49 49 47 45 41 35 32 33 32 34 37 37 36 35
12 12 12 11 10 10 12 14 14 14 15 17 17 19 20 19 18 17 19 21 22 21 20 21 22 23 26 29 30 29 30 32 34 36 37 39 41 41 39 35 33 33 32 32 33 35 37 40 40 38 36 36 36 35 34 33 33 32 31 32 33 34 33 32 30 27 24 23 23 23 26 32 35 35 34 32 30 30 34 40 42 43 45 48 47 45 43 40 36 35 33 30 31 35 36 36 34
12 12 10 10 11 12 13 13 11 12 15 15 15 15 15 18 19 19 19 20 21 21 20 20 21 23 24 25 26 26 27 30 32 34 36 38 39 41 40 38 35 35 33 32 34 37 38 40 40 39 38 38 37 36 35 34 33 32 32 32 33 33 33 33 32 31 28 25 23 24 27 33 35 35 33 31 30 31 36 41 43 44 45 45 44 43 41 39 37 37 34 31 30 34 36 36 36
12 11 10 12 13 12 14 14 13 13 13 12 14 15 15 16 18 18 17 19 20 20 21 20 20 22 22 21 24 26 26 29 31 32 34 37 38 40 40 39 37 35 34 34 36 39 40 39 38 39 39 39 39 37 35 33 32 31 32 32 31 31 31 32 32 33 30 25 23 24 28 33 35 35 33 31 31 33 38 43 46 47 44 43 42 40 39 38 37 36 34 32 33 35 37 37 37
12 12 12 13 13 12 12 14 13 13 14 13 13 13 13 14 16 15 15 18 19 18 20 20 19 22 21 20 22 24 24 28 31 32 33 35 37 38 39 39 38 36 35 36 38 40 40 40 39 40 41 42 42 39 35 32 31 30 31 31 31 30 29 31 32 32 30 25 24 25 29 32 34 34 32 31 33 37 40 45 49 46 42 41 40 39 37 36 36 35 34 35 36 37 38 38 38
13 13 13 12 13 12 11 13 12 13 18 21 16 11 10 12 13 12 13 16 17 17 18 18 19 21 21 21 22 21 22 27 32 34 34 35 36 37 38 38 38 37 36 38 39 40 41 42 42 42 43 43 42 39 34 32 31 31 31 31 31 30 29 29 30 30 29 26 24 26 29 32 33 33 31 31 35 40 42 45 48 44 41 41 39 36 35 34 34 35 36 37 40 41 42 42 40
12 12 12 11 12 13 12 13 13 12 15 20 17 10 8 11 11 9 10 13 15 16 17 18 19 19 21 24 26 25 23 25 30 32 34 36 37 37 37 38 40 41 40 39 40 41 43 44 44 44 44 43 41 38 35 35 34 33 32 32 31 30 29 28 27 27 26 25 24 26 29 31 32 32 30 31 37 42 44 45 45 43 41 41 38 35 35 35 36 37 38 40 43 44 45 45 44